Location: Newark
(9.5976°N, 77.1728°E)
Time: 05:23:56
(UTC+00:00)

ISS - Visible Passes

Search period start: 16 December 2019 00:00
Search period end: 26 December 2019 00:00
Orbit: 411 x 421 km, 51.6° (Epoch: 16 December)

Date Brightness Start Highest point End Pass type
(mag) Time Alt. Az. Time Alt. Az. Time Alt. Az.
16 Dec -1.7 12:53:27 10° WNW 12:56:31 33° SW 12:59:35 10° SSE visible
17 Dec -0.5 00:34:09 10° S 00:36:34 19° SE 00:39:00 10° ENE visible
19 Dec -3.9 00:32:50 10° SW 00:36:08 78° NW 00:39:26 10° NNE visible
19 Dec -2.3 23:44:34 10° SSW 23:47:40 38° SE 23:50:47 10° NE visible
20 Dec -0.9 22:59:02 17° SE 22:59:12 17° SE 23:01:25 10° E visible
21 Dec -2.1 00:33:39 10° W 00:35:45 16° NW 00:37:50 10° NNW visible
21 Dec -1.9 23:49:07 18° N 23:49:07 18° N 23:50:14 10° NNE visible
